BEIJING 1 1 28890U 05043A 26194.60909738 .00000266 00000+0 60655-4 0 9992 2 28890 98.2939 327.9734 0014099 194.2541 165.8265 14.63547506104518 HUANJING 1A (HJ-1A) 1 33320U 08041A 26194.59736397 .00001109 00000+0 13872-3 0 9999 2 33320 97.6690 179.4167 0020482 54.4756 305.8365 14.84048661962326 HUANJING 1B (HJ-1B) 1 33321U 08041B 26194.64602145 .00000290 00000+0 41242-4 0 9992 2 33321 97.6526 182.5545 0037906 96.0787 264.4748 14.83361889962330 YAOGAN-4 1 33446U 08061A 26194.40969905 .00000496 00000+0 67212-4 0 9999 2 33446 97.9304 127.7272 0013993 351.5822 8.5155 14.83249395949557 DEIMOS-1 1 35681U 09041A 26194.57083634 .00000255 00000+0 44729-4 0 9996 2 35681 97.7424 350.6590 0002757 94.4369 265.7155 14.75263200910777 UK-DMC 2 1 35683U 09041C 26194.66338509 .00000170 00000+0 31779-4 0 9999 2 35683 97.8861 328.9875 0001518 100.1468 259.9913 14.76091862910476 DMC3-FM1 1 40715U 15032A 26194.60553737 .00000166 00000+0 25048-4 0 9991 2 40715 97.6438 58.7410 0005073 344.0382 16.0673 14.85767091593839 DMC3-FM2 1 40716U 15032B 26194.62748245 -.00000190 00000+0 -15986-4 0 9993 2 40716 97.6491 60.3537 0005711 347.4471 12.6601 14.85770705593832 DMC3-FM3 1 40717U 15032C 26194.65100056 .00000369 00000+0 48354-4 0 9990 2 40717 97.6541 62.1458 0004900 349.7875 10.3241 14.85761124593844